This is the latest recevied weather packets stored in our database for station/object W4SNA-2. If no packets are shown the sender has not sent any weather packets the latest 1 day(s).
| Time | Temp. | Humidity | Pressure | Rain* | Wind** | Luminosity | Snow |
|---|---|---|---|---|---|---|---|
| 1777993870 | 18.89° C | 61% | 1018.2 hPa | 0 mm | 1.34 m/s, 169° | - | - |
| 1777993570 | 18.33° C | 61% | 1018.2 hPa | 0 mm | 1.34 m/s, 181° | - | - |
| 1777993270 | 18.89° C | 62% | 1018.4 hPa | 0 mm | 0.89 m/s, 181° | - | - |
| 1777992970 | 18.89° C | 61% | 1018.3 hPa | 0 mm | 0.45 m/s, 172° | - | - |
| 1777992670 | 17.78° C | 64% | 1018.3 hPa | 0 mm | 1.34 m/s, 170° | - | - |
| 1777992370 | 17.78° C | 63% | 1018.1 hPa | 0 mm | 1.34 m/s, 182° | - | - |
| 1777992070 | 17.78° C | 65% | 1018.1 hPa | 0 mm | 1.79 m/s, 180° | - | - |
| 1777991770 | 17.22° C | 65% | 1018 hPa | 0 mm | 1.34 m/s, 192° | - | - |
| 1777991470 | 17.22° C | 64% | 1018 hPa | 0 mm | 1.79 m/s, 173° | - | - |
| 1777991170 | 17.22° C | 64% | 1017.9 hPa | 0 mm | 1.79 m/s, 174° | - | - |
| 1777990870 | 17.22° C | 66% | 1017.9 hPa | 0 mm | 1.34 m/s, 178° | - | - |
| 1777990570 | 17.22° C | 64% | 1017.9 hPa | 0 mm | 1.34 m/s, 170° | - | - |
| 1777990270 | 17.22° C | 64% | 1017.9 hPa | 0 mm | 1.34 m/s, 167° | - | - |
| 1777989970 | 16.67° C | 69% | 1017.9 hPa | 0 mm | 0.45 m/s, 179° | - | - |
| 1777989670 | 16.11° C | 66% | 1017.9 hPa | 0 mm | 2.24 m/s, 174° | - | - |
| 1777989370 | 16.11° C | 69% | 1017.9 hPa | 0 mm | 2.24 m/s, 174° | - | - |
| 1777989070 | 15.56° C | 71% | 1017.9 hPa | 0 mm | 0.45 m/s, 174° | - | - |
| 1777988770 | 15° C | 70% | 1018.1 hPa | 0 mm | 0.89 m/s, 173° | - | - |
| 1777988470 | 15.56° C | 68% | 1017.9 hPa | 0 mm | 0.89 m/s, 173° | - | - |
| 1777988170 | 15° C | 69% | 1017.8 hPa | 0 mm | 0.89 m/s, 172° | - | - |
| 1777987871 | 15° C | 69% | 1017.8 hPa | 0 mm | 0.89 m/s, 180° | - | - |
| 1777987570 | 15.56° C | 69% | 1017.7 hPa | 0 mm | 0 m/s | - | - |
| 1777987270 | 15° C | 69% | 1017.7 hPa | 0 mm | 0 m/s | - | - |
| 1777986970 | 15° C | 68% | 1017.7 hPa | 0 mm | 0 m/s | - | - |
| 1777986670 | 15.56° C | 67% | 1017.7 hPa | 0 mm | 0 m/s | - | - |
* Rain latest hour (hover to see other rain measurements)
** Current wind speed in m/s (hover to see current wind gust speed)